Tracking 25703 objects as of 2-Jul-2022
HD Live streaming from Space Station
objects crossing your sky now

FORMOSAT 3B

Track FORMOSAT 3B now!
10-day predictions
FORMOSAT 3B is classified as:


NORAD ID: 29048
Int'l Code: 2006-011B
Perigee: 771.1 km
Apogee: 833.6 km
Inclination: 72.0 °
Period: 100.8 minutes
Semi major axis: 7173 km
RCS: 0.6095 m2 (medium)
Launch date: April 15, 2006
Source: Taiwan (Republic of China) (ROC)
Launch site: AIR FORCE WESTERN TEST RANGE (AFWTR)
aabbcc
Your satellite tracking list
Your tracking list is empty




NASA's NSSDC Master Catalog

Two Line Element Set (TLE):
1 29048U 06011B   22183.56892561  .00000148  00000-0  74175-4 0  9990
2 29048  71.9671 298.9745 0043547 178.2889 181.8405 14.28951624850198
Source of the keplerian elements: AFSPC